Find Starlink 35001

NORAD ID: 65280 Int'l Des: 2025-184 Owner: SPXS Country: US Constellation: starlink operational
LEOCIRCULARRETROGRADESSO

現在のビュー

3D地球を読み込み中...

About Starlink 35001

Starlink 35001 (NORAD 65280) is a starlink constellation satellite (v2 mini) launched Aug 22, 2025 by SPXS of US. It operates in LEO, CIRCULAR, RETROGRADE, SSO orbit with a mass of 575.00 kg.

次回通過

Passes for default location (London). Set your location on the main map for personalized predictions.

高度履歴

Loading altitude history...

軌道要素

1 65280U 25184H 26263.59395753 .00010788 00000-0 33592-3 0 9995
2 65280 97.2863 311.4866 0000532 150.4236 209.7037 15.33453714 60738
Epoch: Sep 20, 2026 • Age: 14 hours

現在のステータス

高度 491.1 km
遠地点 / 近地点 N/A
速度 7.62 km/s
衛星直下点 -66.75°S, 91.61°W
打ち上げ日 Aug 22, 2025
運用期間 1 year
タイプ internet

技術仕様

分類 Payload
質量 575.00 kg
乾燥質量 530.00 kg
長さ 0.30 m
スパン 29.00 m
形状 ? Box + pan
製造者 SPXS
バスタイプ Starlink V2MO
フェーズステータス In Orbit
所有者/国 SPXS/US

Most Searched